Time,TemperatureF,DewpointF,PressureIn,WindDirection,WindDirectionDegrees,WindSpeedMPH,WindSpeedGustMPH,Humidity,HourlyPrecipIn,Conditions,Clouds,dailyrainin,SoftwareType,DateUTC
2013-10-07 00:01:00,43.5,38.1,29.78,South,180,0.0,0.0,81,0.00,,,0.00,WUHU21623XXSP,2013-10-07 05:01:00,
2013-10-07 00:06:00,43.3,38.2,29.79,West,270,0.0,0.0,82,0.00,,,0.00,WUHU21623XXSP,2013-10-07 05:06:00,
2013-10-07 00:11:00,43.5,38.4,29.79,West,270,0.0,0.0,82,0.00,,,0.00,WUHU21623XXSP,2013-10-07 05:11:00,
2013-10-07 00:16:00,43.3,38.5,29.78,SSW,202,0.0,0.0,83,0.00,,,0.00,WUHU21623XXSP,2013-10-07 05:16:00,
2013-10-07 00:21:00,43.3,38.5,29.79,SSW,202,0.0,0.0,83,0.00,,,0.00,WUHU21623XXSP,2013-10-07 05:21:00,
2013-10-07 00:26:00,43.2,38.3,29.78,SSW,202,0.0,0.0,83,0.00,,,0.00,WUHU21623XXSP,2013-10-07 05:26:00,
2013-10-07 00:31:00,43.2,38.3,29.78,West,270,0.0,0.0,83,0.00,,,0.00,WUHU21623XXSP,2013-10-07 05:31:00,
2013-10-07 00:36:00,43.2,38.3,29.78,West,270,0.0,0.0,83,0.00,,,0.00,WUHU21623XXSP,2013-10-07 05:36:00,
2013-10-07 00:41:00,43.2,38.3,29.78,West,270,0.0,0.0,83,0.00,,,0.00,WUHU21623XXSP,2013-10-07 05:41:00,
2013-10-07 00:46:00,43.0,38.1,29.78,West,270,0.0,0.0,83,0.00,,,0.00,WUHU21623XXSP,2013-10-07 05:46:00,
2013-10-07 00:51:00,43.0,38.1,29.78,West,270,0.0,0.0,83,0.00,,,0.00,WUHU21623XXSP,2013-10-07 05:51:00,
2013-10-07 00:56:00,43.0,38.1,29.78,West,270,0.0,0.0,83,0.00,,,0.00,WUHU21623XXSP,2013-10-07 05:56:00,
2013-10-07 01:01:00,42.8,38.0,29.78,West,270,0.0,0.0,83,0.00,,,0.00,WUHU21623XXSP,2013-10-07 06:01:00,
2013-10-07 01:06:00,42.8,38.0,29.78,West,270,0.0,0.0,83,0.00,,,0.00,WUHU21623XXSP,2013-10-07 06:06:00,
2013-10-07 01:11:00,42.4,37.9,29.79,West,270,0.0,0.0,84,0.00,,,0.00,WUHU21623XXSP,2013-10-07 06:11:00,
2013-10-07 01:16:00,42.3,37.7,29.79,West,270,0.0,0.0,84,0.00,,,0.00,WUHU21623XXSP,2013-10-07 06:16:00,
2013-10-07 01:21:00,42.3,37.7,29.79,West,270,0.0,0.0,84,0.00,,,0.00,WUHU21623XXSP,2013-10-07 06:21:00,
2013-10-07 01:26:00,42.3,37.7,29.80,West,270,0.0,0.0,84,0.00,,,0.00,WUHU21623XXSP,2013-10-07 06:26:00,
2013-10-07 01:31:00,42.1,37.5,29.80,WSW,247,0.0,0.0,84,0.00,,,0.00,WUHU21623XXSP,2013-10-07 06:31:00,
2013-10-07 01:36:00,42.3,37.7,29.80,SSW,202,0.0,0.0,84,0.00,,,0.00,WUHU21623XXSP,2013-10-07 06:36:00,
2013-10-07 01:41:00,42.3,38.0,29.80,West,270,0.0,0.0,85,0.00,,,0.00,WUHU21623XXSP,2013-10-07 06:41:00,
2013-10-07 01:46:00,42.4,38.2,29.81,WNW,292,0.0,0.0,85,0.00,,,0.00,WUHU21623XXSP,2013-10-07 06:46:00,
2013-10-07 01:51:00,42.4,38.2,29.79,South,180,0.0,0.0,85,0.00,,,0.00,WUHU21623XXSP,2013-10-07 06:51:00,
2013-10-07 01:56:00,42.3,38.0,29.80,South,180,0.0,0.0,85,0.00,,,0.00,WUHU21623XXSP,2013-10-07 06:56:00,
2013-10-07 02:01:00,42.3,38.0,29.79,South,180,0.0,0.0,85,0.00,,,0.00,WUHU21623XXSP,2013-10-07 07:01:00,
2013-10-07 02:06:00,42.3,38.3,29.80,WNW,292,0.0,0.0,86,0.00,,,0.00,WUHU21623XXSP,2013-10-07 07:06:00,
2013-10-07 02:11:00,42.3,38.3,29.80,WNW,292,0.0,0.0,86,0.00,,,0.00,WUHU21623XXSP,2013-10-07 07:11:00,
2013-10-07 02:16:00,42.4,38.5,29.80,WNW,292,0.0,0.0,86,0.00,,,0.00,WUHU21623XXSP,2013-10-07 07:16:00,
2013-10-07 02:21:00,42.4,38.5,29.80,West,270,0.0,0.0,86,0.00,,,0.00,WUHU21623XXSP,2013-10-07 07:21:00,
2013-10-07 02:26:00,42.4,38.5,29.80,NNW,337,0.0,0.0,86,0.00,,,0.00,WUHU21623XXSP,2013-10-07 07:26:00,
2013-10-07 02:31:00,42.8,39.2,29.80,SSW,202,0.0,0.0,87,0.00,,,0.00,WUHU21623XXSP,2013-10-07 07:31:00,
2013-10-07 02:36:00,43.0,39.4,29.80,NW,315,0.0,0.0,87,0.00,,,0.00,WUHU21623XXSP,2013-10-07 07:36:00,
2013-10-07 02:41:00,43.0,39.4,29.79,WNW,292,0.0,0.0,87,0.00,,,0.00,WUHU21623XXSP,2013-10-07 07:41:00,
2013-10-07 02:46:00,43.2,39.5,29.79,WNW,292,0.0,0.0,87,0.00,,,0.00,WUHU21623XXSP,2013-10-07 07:46:00,
2013-10-07 02:51:00,43.2,39.5,29.79,WNW,292,0.0,0.0,87,0.00,,,0.00,WUHU21623XXSP,2013-10-07 07:51:00,
2013-10-07 02:56:00,43.2,39.5,29.79,WNW,292,0.0,0.0,87,0.00,,,0.00,WUHU21623XXSP,2013-10-07 07:56:00,
2013-10-07 03:01:00,43.0,39.4,29.79,WNW,292,0.0,0.0,87,0.00,,,0.00,WUHU21623XXSP,2013-10-07 08:01:00,
2013-10-07 03:06:00,43.0,39.4,29.79,WNW,292,0.0,0.0,87,0.00,,,0.00,WUHU21623XXSP,2013-10-07 08:06:00,
2013-10-07 03:11:00,43.0,39.4,29.80,NW,315,0.0,0.0,87,0.00,,,0.00,WUHU21623XXSP,2013-10-07 08:11:00,
2013-10-07 03:16:00,43.0,39.4,29.80,WSW,247,0.0,0.0,87,0.00,,,0.00,WUHU21623XXSP,2013-10-07 08:16:00,
2013-10-07 03:21:00,43.0,39.4,29.80,WSW,247,0.0,0.0,87,0.00,,,0.00,WUHU21623XXSP,2013-10-07 08:21:00,
2013-10-07 03:26:00,43.0,39.7,29.80,WSW,247,0.0,0.0,88,0.00,,,0.00,WUHU21623XXSP,2013-10-07 08:26:00,
2013-10-07 03:31:00,43.2,39.8,29.80,WSW,247,0.0,0.0,88,0.00,,,0.00,WUHU21623XXSP,2013-10-07 08:31:00,
2013-10-07 03:36:00,43.2,39.8,29.80,WSW,247,0.0,0.0,88,0.00,,,0.00,WUHU21623XXSP,2013-10-07 08:36:00,
2013-10-07 03:41:00,43.3,40.0,29.80,NW,315,0.0,0.0,88,0.00,,,0.00,WUHU21623XXSP,2013-10-07 08:41:00,
2013-10-07 03:46:00,43.5,40.2,29.80,NW,315,0.0,0.0,88,0.00,,,0.00,WUHU21623XXSP,2013-10-07 08:46:00,
2013-10-07 03:51:00,43.7,40.7,29.80,WSW,247,0.0,0.0,89,0.00,,,0.00,WUHU21623XXSP,2013-10-07 08:51:00,
2013-10-07 03:56:00,44.1,40.7,29.80,SW,225,0.0,0.0,88,0.00,,,0.00,WUHU21623XXSP,2013-10-07 08:56:00,
2013-10-07 04:01:00,44.1,40.7,29.80,West,270,0.0,2.9,88,0.00,,,0.00,WUHU21623XXSP,2013-10-07 09:01:00,
2013-10-07 04:06:00,44.2,40.9,29.81,West,270,0.0,2.9,88,0.00,,,0.00,WUHU21623XXSP,2013-10-07 09:06:00,
2013-10-07 04:11:00,44.6,41.6,29.81,West,270,0.0,0.0,89,0.00,,,0.00,WUHU21623XXSP,2013-10-07 09:11:00,
2013-10-07 04:16:00,44.8,41.8,29.81,West,270,0.0,0.0,89,0.00,,,0.00,WUHU21623XXSP,2013-10-07 09:16:00,
2013-10-07 04:21:00,45.0,42.0,29.81,WNW,292,0.0,0.0,89,0.00,,,0.00,WUHU21623XXSP,2013-10-07 09:21:00,
2013-10-07 04:26:00,45.1,42.1,29.81,SW,225,0.0,0.0,89,0.00,,,0.00,WUHU21623XXSP,2013-10-07 09:26:00,
2013-10-07 04:31:00,45.3,42.6,29.81,West,270,0.0,0.0,90,0.00,,,0.00,WUHU21623XXSP,2013-10-07 09:31:00,
2013-10-07 04:36:00,45.3,42.3,29.81,WNW,292,0.0,0.0,89,0.00,,,0.00,WUHU21623XXSP,2013-10-07 09:36:00,
2013-10-07 04:41:00,45.7,43.0,29.82,West,270,0.0,0.0,90,0.00,,,0.00,WUHU21623XXSP,2013-10-07 09:41:00,
2013-10-07 04:46:00,45.9,43.2,29.82,WNW,292,0.0,0.0,90,0.00,,,0.00,WUHU21623XXSP,2013-10-07 09:46:00,
2013-10-07 04:51:00,46.0,43.3,29.82,WNW,292,1.1,1.3,90,0.00,,,0.00,WUHU21623XXSP,2013-10-07 09:51:00,
2013-10-07 04:56:00,46.2,43.5,29.82,West,270,0.0,1.3,90,0.00,,,0.00,WUHU21623XXSP,2013-10-07 09:56:00,
2013-10-07 05:01:00,46.2,43.5,29.82,WNW,292,0.0,0.7,90,0.00,,,0.00,WUHU21623XXSP,2013-10-07 10:01:00,
2013-10-07 05:06:00,46.6,43.9,29.82,West,270,0.0,0.7,90,0.00,,,0.00,WUHU21623XXSP,2013-10-07 10:06:00,
2013-10-07 05:11:00,46.6,43.9,29.82,WSW,247,0.0,0.0,90,0.00,,,0.00,WUHU21623XXSP,2013-10-07 10:11:00,
2013-10-07 05:16:00,46.8,44.3,29.82,SW,225,0.0,0.0,91,0.00,,,0.00,WUHU21623XXSP,2013-10-07 10:16:00,
2013-10-07 05:21:00,46.9,44.5,29.83,West,270,0.0,0.0,91,0.00,,,0.00,WUHU21623XXSP,2013-10-07 10:21:00,
2013-10-07 05:26:00,47.1,44.7,29.83,WSW,247,0.0,0.0,91,0.00,,,0.00,WUHU21623XXSP,2013-10-07 10:26:00,
2013-10-07 05:31:00,47.1,44.4,29.83,WNW,292,0.0,0.0,90,0.00,,,0.00,WUHU21623XXSP,2013-10-07 10:31:00,
2013-10-07 05:36:00,47.3,44.6,29.83,SW,225,0.0,0.0,90,0.00,,,0.00,WUHU21623XXSP,2013-10-07 10:36:00,
2013-10-07 05:41:00,47.7,45.0,29.83,WNW,292,0.0,0.0,90,0.00,,,0.00,WUHU21623XXSP,2013-10-07 10:41:00,
2013-10-07 05:46:00,47.8,45.1,29.83,West,270,0.0,0.0,90,0.00,,,0.00,WUHU21623XXSP,2013-10-07 10:46:00,
2013-10-07 05:51:00,47.8,45.1,29.83,SSW,202,0.0,0.9,90,0.00,,,0.00,WUHU21623XXSP,2013-10-07 10:51:00,
2013-10-07 05:56:00,47.8,45.4,29.83,West,270,0.0,0.9,91,0.00,,,0.00,WUHU21623XXSP,2013-10-07 10:56:00,
2013-10-07 06:01:00,47.8,45.4,29.83,West,270,0.0,0.0,91,0.00,,,0.00,WUHU21623XXSP,2013-10-07 11:01:00,
2013-10-07 06:06:00,48.0,45.6,29.84,West,270,0.0,0.0,91,0.00,,,0.00,WUHU21623XXSP,2013-10-07 11:06:00,
2013-10-07 06:11:00,48.0,45.6,29.85,WSW,247,0.0,1.6,91,0.00,,,0.00,WUHU21623XXSP,2013-10-07 11:11:00,
2013-10-07 06:16:00,48.0,45.6,29.85,SW,225,0.0,1.6,91,0.00,,,0.00,WUHU21623XXSP,2013-10-07 11:16:00,
2013-10-07 06:21:00,48.0,45.6,29.85,WNW,292,0.0,0.0,91,0.00,,,0.00,WUHU21623XXSP,2013-10-07 11:21:00,
2013-10-07 06:26:00,47.8,45.4,29.86,WNW,292,0.0,0.0,91,0.00,,,0.00,WUHU21623XXSP,2013-10-07 11:26:00,
2013-10-07 06:31:00,47.8,45.4,29.86,WNW,292,0.0,0.0,91,0.00,,,0.00,WUHU21623XXSP,2013-10-07 11:31:00,
2013-10-07 06:36:00,47.8,45.4,29.86,WNW,292,0.0,0.7,91,0.00,,,0.00,WUHU21623XXSP,2013-10-07 11:36:00,
2013-10-07 06:41:00,47.8,45.1,29.86,WNW,292,0.0,0.7,90,0.00,,,0.00,WUHU21623XXSP,2013-10-07 11:41:00,
2013-10-07 06:46:00,47.7,45.0,29.86,West,270,0.0,0.0,90,0.00,,,0.00,WUHU21623XXSP,2013-10-07 11:46:00,
2013-10-07 06:51:00,47.5,44.8,29.87,West,270,0.7,0.7,90,0.00,,,0.00,WUHU21623XXSP,2013-10-07 11:51:00,
2013-10-07 06:56:00,47.5,44.8,29.87,WNW,292,0.0,0.7,90,0.00,,,0.00,WUHU21623XXSP,2013-10-07 11:56:00,
2013-10-07 07:01:00,47.3,44.6,29.87,WNW,292,0.0,1.3,90,0.00,,,0.00,WUHU21623XXSP,2013-10-07 12:01:00,
2013-10-07 07:06:00,46.9,44.5,29.87,WSW,247,0.0,1.3,91,0.00,,,0.00,WUHU21623XXSP,2013-10-07 12:06:00,
2013-10-07 07:11:00,46.9,44.7,29.88,WNW,292,0.9,0.9,91,0.00,,,0.00,WUHU21623XXSP,2013-10-07 12:11:00,
2013-10-07 07:16:00,46.9,44.5,29.88,WNW,292,0.7,0.9,91,0.00,,,0.00,WUHU21623XXSP,2013-10-07 12:16:00,
2013-10-07 07:21:00,46.9,44.5,29.88,WNW,292,0.0,0.7,91,0.00,,,0.00,WUHU21623XXSP,2013-10-07 12:21:00,
2013-10-07 07:26:00,46.9,44.5,29.88,WNW,292,0.0,0.0,91,0.00,,,0.00,WUHU21623XXSP,2013-10-07 12:26:00,
2013-10-07 07:31:00,46.9,44.5,29.89,West,270,0.7,0.7,91,0.00,,,0.00,WUHU21623XXSP,2013-10-07 12:31:00,
2013-10-07 07:36:00,46.9,44.5,29.89,West,270,0.0,0.7,91,0.00,,,0.00,WUHU21623XXSP,2013-10-07 12:36:00,
2013-10-07 07:41:00,46.9,44.5,29.89,West,270,0.0,0.0,91,0.00,,,0.00,WUHU21623XXSP,2013-10-07 12:41:00,
2013-10-07 07:46:00,47.1,44.7,29.89,West,270,0.0,0.0,91,0.00,,,0.00,WUHU21623XXSP,2013-10-07 12:46:00,
2013-10-07 07:51:00,46.9,44.5,29.89,WNW,292,0.0,0.0,91,0.00,,,0.00,WUHU21623XXSP,2013-10-07 12:51:00,
2013-10-07 07:56:00,46.9,44.5,29.89,WNW,292,0.0,0.0,91,0.00,,,0.00,WUHU21623XXSP,2013-10-07 12:56:00,
2013-10-07 08:01:00,47.3,44.9,29.90,WNW,292,0.0,0.0,91,0.00,,,0.00,WUHU21623XXSP,2013-10-07 13:01:00,
2013-10-07 08:06:00,47.7,45.0,29.90,WSW,247,0.0,1.1,90,0.00,,,0.00,WUHU21623XXSP,2013-10-07 13:06:00,
2013-10-07 08:11:00,47.8,45.1,29.90,West,270,0.0,1.1,90,0.00,,,0.00,WUHU21623XXSP,2013-10-07 13:11:00,
2013-10-07 08:16:00,48.2,45.5,29.91,WNW,292,0.0,0.0,90,0.00,,,0.00,WUHU21623XXSP,2013-10-07 13:16:00,
2013-10-07 08:21:00,48.6,46.1,29.91,West,270,0.0,0.0,91,0.00,,,0.00,WUHU21623XXSP,2013-10-07 13:21:00,
2013-10-07 08:26:00,48.7,46.3,29.91,WNW,292,1.3,1.3,91,0.00,,,0.00,WUHU21623XXSP,2013-10-07 13:26:00,
2013-10-07 08:31:00,49.3,46.5,29.91,WNW,292,0.0,1.3,90,0.00,,,0.00,WUHU21623XXSP,2013-10-07 13:31:00,
2013-10-07 08:36:00,49.6,46.8,29.92,WSW,247,0.0,1.8,90,0.00,,,0.00,WUHU21623XXSP,2013-10-07 13:36:00,
2013-10-07 08:41:00,50.0,47.1,29.92,SW,225,1.1,1.8,90,0.00,,,0.00,WUHU21623XXSP,2013-10-07 13:41:00,
2013-10-07 08:46:00,50.2,47.3,29.92,West,270,0.4,1.1,90,0.00,,,0.00,WUHU21623XXSP,2013-10-07 13:46:00,
2013-10-07 08:51:00,50.4,47.5,29.92,SW,225,0.0,0.4,90,0.00,,,0.00,WUHU21623XXSP,2013-10-07 13:51:00,
2013-10-07 08:56:00,50.7,47.5,29.93,NW,315,5.1,5.1,89,0.00,,,0.00,WUHU21623XXSP,2013-10-07 13:56:00,
2013-10-07 09:01:00,50.9,47.4,29.93,WSW,247,0.7,5.1,88,0.00,,,0.00,WUHU21623XXSP,2013-10-07 14:01:00,
2013-10-07 09:06:00,50.9,47.4,29.93,WNW,292,3.1,3.1,88,0.00,,,0.00,WUHU21623XXSP,2013-10-07 14:06:00,
2013-10-07 09:11:00,51.3,47.3,29.93,WNW,292,0.0,3.1,87,0.00,,,0.00,WUHU21623XXSP,2013-10-07 14:11:00,
2013-10-07 09:16:00,51.6,47.8,29.94,NW,315,1.8,3.6,87,0.00,,,0.00,WUHU21623XXSP,2013-10-07 14:16:00,
2013-10-07 09:21:00,52.0,48.2,29.94,WSW,247,0.0,3.6,87,0.00,,,0.00,WUHU21623XXSP,2013-10-07 14:21:00,
2013-10-07 09:26:00,52.2,48.1,29.94,NW,315,6.9,6.9,86,0.00,,,0.00,WUHU21623XXSP,2013-10-07 14:26:00,
2013-10-07 09:31:00,52.5,48.1,29.94,WNW,292,0.0,6.9,85,0.00,,,0.00,WUHU21623XXSP,2013-10-07 14:31:00,
2013-10-07 09:36:00,52.7,48.0,29.94,WNW,292,0.0,1.8,84,0.00,,,0.00,WUHU21623XXSP,2013-10-07 14:36:00,
2013-10-07 09:41:00,52.7,47.7,29.94,West,270,0.0,1.8,83,0.00,,,0.00,WUHU21623XXSP,2013-10-07 14:41:00,
2013-10-07 09:46:00,53.2,47.9,29.94,WNW,292,2.7,3.8,82,0.00,,,0.00,WUHU21623XXSP,2013-10-07 14:46:00,
2013-10-07 09:51:00,53.4,47.8,29.94,West,270,0.0,3.8,81,0.00,,,0.00,WUHU21623XXSP,2013-10-07 14:51:00,
2013-10-07 09:56:00,53.8,48.1,29.94,West,270,4.9,4.9,81,0.00,,,0.00,WUHU21623XXSP,2013-10-07 14:56:00,
2013-10-07 10:01:00,54.0,48.0,29.95,NW,315,4.0,4.9,80,0.00,,,0.00,WUHU21623XXSP,2013-10-07 15:01:00,
2013-10-07 10:06:00,54.5,48.1,29.95,WNW,292,4.0,4.0,79,0.00,,,0.00,WUHU21623XXSP,2013-10-07 15:06:00,
2013-10-07 10:11:00,54.7,47.9,29.95,WNW,292,0.0,4.0,78,0.00,,,0.00,WUHU21623XXSP,2013-10-07 15:11:00,
2013-10-07 10:16:00,55.0,47.9,29.95,North,0,0.0,2.5,77,0.00,,,0.00,WUHU21623XXSP,2013-10-07 15:16:00,
2013-10-07 10:21:00,55.2,47.7,29.95,NNW,337,0.0,2.5,76,0.00,,,0.00,WUHU21623XXSP,2013-10-07 15:21:00,
2013-10-07 10:26:00,55.8,48.3,29.96,WSW,247,0.0,0.7,76,0.00,,,0.00,WUHU21623XXSP,2013-10-07 15:26:00,
2013-10-07 10:31:00,55.9,47.7,29.96,WNW,292,0.0,2.2,74,0.00,,,0.00,WUHU21623XXSP,2013-10-07 15:31:00,
2013-10-07 10:36:00,56.1,47.9,29.95,NW,315,0.0,2.2,74,0.00,,,0.00,WUHU21623XXSP,2013-10-07 15:36:00,
2013-10-07 10:41:00,56.5,47.2,29.96,West,270,0.0,1.3,71,0.00,,,0.00,WUHU21623XXSP,2013-10-07 15:41:00,
2013-10-07 10:46:00,56.7,47.0,29.96,NW,315,4.9,4.9,70,0.00,,,0.00,WUHU21623XXSP,2013-10-07 15:46:00,
2013-10-07 10:51:00,56.8,47.2,29.96,West,270,0.0,4.9,69,0.00,,,0.00,WUHU21623XXSP,2013-10-07 15:51:00,
2013-10-07 10:56:00,57.4,46.9,29.96,West,270,2.7,2.7,68,0.00,,,0.00,WUHU21623XXSP,2013-10-07 15:56:00,
2013-10-07 11:01:00,57.9,47.0,29.96,WNW,292,1.3,2.7,67,0.00,,,0.00,WUHU21623XXSP,2013-10-07 16:01:00,
2013-10-07 11:06:00,58.1,47.2,29.96,NW,315,0.0,1.3,67,0.00,,,0.00,WUHU21623XXSP,2013-10-07 16:06:00,
2013-10-07 11:11:00,58.6,46.5,29.96,WNW,292,3.8,3.8,64,0.00,,,0.00,WUHU21623XXSP,2013-10-07 16:11:00,
2013-10-07 11:16:00,59.0,46.0,29.96,West,270,0.0,4.0,62,0.00,,,0.00,WUHU21623XXSP,2013-10-07 16:16:00,
2013-10-07 11:21:00,59.2,45.7,29.96,NW,315,2.5,4.0,61,0.00,,,0.00,WUHU21623XXSP,2013-10-07 16:21:00,
2013-10-07 11:26:00,59.7,45.9,29.96,WNW,292,0.0,2.7,60,0.00,,,0.00,WUHU21623XXSP,2013-10-07 16:26:00,
2013-10-07 11:31:00,59.9,44.6,29.96,NNW,337,0.0,2.7,57,0.00,,,0.00,WUHU21623XXSP,2013-10-07 16:31:00,
2013-10-07 11:36:00,60.1,44.8,29.96,West,270,1.3,1.3,57,0.00,,,0.00,WUHU21623XXSP,2013-10-07 16:36:00,
2013-10-07 11:41:00,60.4,44.2,29.96,WNW,292,0.0,1.3,55,0.00,,,0.00,WUHU21623XXSP,2013-10-07 16:41:00,
2013-10-07 11:46:00,60.8,44.0,29.96,WNW,292,0.0,0.0,54,0.00,,,0.00,WUHU21623XXSP,2013-10-07 16:46:00,
2013-10-07 11:51:00,61.2,44.3,29.96,West,270,0.0,0.0,54,0.00,,,0.00,WUHU21623XXSP,2013-10-07 16:51:00,
2013-10-07 11:56:00,61.5,44.7,29.96,NNE,22,0.0,0.0,54,0.00,,,0.00,WUHU21623XXSP,2013-10-07 16:56:00,
2013-10-07 12:01:00,62.1,44.2,29.96,NW,315,6.0,6.0,52,0.00,,,0.00,WUHU21623XXSP,2013-10-07 17:01:00,
2013-10-07 12:07:00,62.6,44.2,29.96,SSW,202,0.0,6.0,51,0.00,,,0.00,WUHU21623XXSP,2013-10-07 17:07:00,
2013-10-07 12:12:00,63.1,44.7,29.96,SSW,202,0.0,0.7,51,0.00,,,0.00,WUHU21623XXSP,2013-10-07 17:12:00,
2013-10-07 12:17:00,63.5,45.0,29.96,WNW,292,0.9,0.9,51,0.00,,,0.00,WUHU21623XXSP,2013-10-07 17:17:00,
2013-10-07 12:22:00,63.9,44.3,29.96,WSW,247,0.0,0.9,49,0.00,,,0.00,WUHU21623XXSP,2013-10-07 17:22:00,
2013-10-07 12:27:00,64.2,44.6,29.96,North,0,3.8,3.8,49,0.00,,,0.00,WUHU21623XXSP,2013-10-07 17:27:00,
2013-10-07 12:32:00,64.6,44.3,29.96,West,270,0.0,3.8,48,0.00,,,0.00,WUHU21623XXSP,2013-10-07 17:32:00,
2013-10-07 12:37:00,64.8,43.4,29.96,NW,315,3.4,3.4,46,0.00,,,0.00,WUHU21623XXSP,2013-10-07 17:37:00,
2013-10-07 12:42:00,64.8,42.8,29.96,West,270,0.0,3.4,45,0.00,,,0.00,WUHU21623XXSP,2013-10-07 17:42:00,
2013-10-07 12:47:00,65.1,43.1,29.96,WNW,292,0.0,3.1,45,0.00,,,0.00,WUHU21623XXSP,2013-10-07 17:47:00,
2013-10-07 12:52:00,65.5,43.5,29.96,West,270,6.3,6.3,45,0.00,,,0.00,WUHU21623XXSP,2013-10-07 17:52:00,
2013-10-07 12:57:00,65.7,43.6,29.95,SW,225,0.0,6.3,45,0.00,,,0.00,WUHU21623XXSP,2013-10-07 17:57:00,
2013-10-07 13:02:00,65.8,43.2,29.96,West,270,6.3,6.3,44,0.00,,,0.00,WUHU21623XXSP,2013-10-07 18:02:00,
2013-10-07 13:07:00,66.2,43.6,29.95,ENE,67,1.6,6.3,44,0.00,,,0.00,WUHU21623XXSP,2013-10-07 18:07:00,
2013-10-07 13:12:00,66.4,43.7,29.95,ESE,112,0.0,6.3,44,0.00,,,0.00,WUHU21623XXSP,2013-10-07 18:12:00,
2013-10-07 13:17:00,66.4,43.7,29.95,WSW,247,0.0,0.0,44,0.00,,,0.00,WUHU21623XXSP,2013-10-07 18:17:00,
2013-10-07 13:22:00,66.7,43.4,29.95,SW,225,6.3,6.3,43,0.00,,,0.00,WUHU21623XXSP,2013-10-07 18:22:00,
2013-10-07 13:27:00,66.9,43.6,29.95,WSW,247,11.0,11.0,43,0.00,,,0.00,WUHU21623XXSP,2013-10-07 18:27:00,
2013-10-07 13:32:00,66.9,43.6,29.95,WNW,292,1.3,11.0,43,0.00,,,0.00,WUHU21623XXSP,2013-10-07 18:32:00,
2013-10-07 13:37:00,67.3,43.3,29.95,West,270,0.0,2.0,42,0.00,,,0.00,WUHU21623XXSP,2013-10-07 18:37:00,
2013-10-07 13:42:00,67.5,42.9,29.95,NNW,337,1.1,2.0,41,0.00,,,0.00,WUHU21623XXSP,2013-10-07 18:42:00,
2013-10-07 13:47:00,67.5,42.3,29.95,WNW,292,4.5,4.5,40,0.00,,,0.00,WUHU21623XXSP,2013-10-07 18:47:00,
2013-10-07 13:52:00,67.8,42.6,29.95,SSW,202,0.0,4.5,40,0.00,,,0.00,WUHU21623XXSP,2013-10-07 18:52:00,
2013-10-07 13:57:00,68.0,42.1,29.95,WNW,292,7.8,7.8,39,0.00,,,0.00,WUHU21623XXSP,2013-10-07 18:57:00,
2013-10-07 14:02:00,67.8,41.9,29.95,SW,225,0.9,7.8,39,0.00,,,0.00,WUHU21623XXSP,2013-10-07 19:02:00,
2013-10-07 14:07:00,68.2,42.2,29.94,WNW,292,1.8,4.0,39,0.00,,,0.00,WUHU21623XXSP,2013-10-07 19:07:00,
2013-10-07 14:12:00,68.4,43.1,29.94,WSW,247,3.6,3.6,40,0.00,,,0.00,WUHU21623XXSP,2013-10-07 19:12:00,
2013-10-07 14:17:00,68.4,40.9,29.95,West,270,0.0,3.6,37,0.00,,,0.00,WUHU21623XXSP,2013-10-07 19:17:00,
2013-10-07 14:22:00,68.4,42.4,29.95,SSE,157,0.0,1.8,39,0.00,,,0.00,WUHU21623XXSP,2013-10-07 19:22:00,
2013-10-07 14:27:00,68.7,43.4,29.94,NW,315,0.0,1.8,40,0.00,,,0.00,WUHU21623XXSP,2013-10-07 19:27:00,
2013-10-07 14:32:00,69.1,42.3,29.95,WSW,247,0.0,1.8,38,0.00,,,0.00,WUHU21623XXSP,2013-10-07 19:32:00,
2013-10-07 14:37:00,69.1,42.3,29.95,West,270,0.0,0.0,38,0.00,,,0.00,WUHU21623XXSP,2013-10-07 19:37:00,
2013-10-07 14:42:00,69.3,42.5,29.94,SSW,202,0.0,0.0,38,0.00,,,0.00,WUHU21623XXSP,2013-10-07 19:42:00,
2013-10-07 14:47:00,69.4,41.9,29.95,WSW,247,1.3,1.3,37,0.00,,,0.00,WUHU21623XXSP,2013-10-07 19:47:00,
2013-10-07 14:52:00,69.4,41.9,29.95,WSW,247,2.9,2.9,37,0.00,,,0.00,WUHU21623XXSP,2013-10-07 19:52:00,
2013-10-07 14:57:00,69.4,41.1,29.94,WSW,247,4.7,4.7,36,0.00,,,0.00,WUHU21623XXSP,2013-10-07 19:57:00,
2013-10-07 15:02:00,69.4,41.1,29.95,WNW,292,5.4,5.4,36,0.00,,,0.00,WUHU21623XXSP,2013-10-07 20:02:00,
2013-10-07 15:07:00,69.6,40.6,29.95,WSW,247,2.0,5.4,35,0.00,,,0.00,WUHU21623XXSP,2013-10-07 20:07:00,
2013-10-07 15:12:00,69.4,40.4,29.95,SSW,202,2.5,2.5,35,0.00,,,0.00,WUHU21623XXSP,2013-10-07 20:12:00,
2013-10-07 15:17:00,69.6,40.6,29.95,SW,225,0.4,6.9,35,0.00,,,0.00,WUHU21623XXSP,2013-10-07 20:17:00,
2013-10-07 15:22:00,69.6,40.6,29.95,NW,315,5.4,6.9,35,0.00,,,0.00,WUHU21623XXSP,2013-10-07 20:22:00,
2013-10-07 15:27:00,69.6,40.6,29.95,NW,315,0.0,5.4,35,0.00,,,0.00,WUHU21623XXSP,2013-10-07 20:27:00,
2013-10-07 15:32:00,70.0,41.6,29.95,NW,315,0.0,7.2,36,0.00,,,0.00,WUHU21623XXSP,2013-10-07 20:32:00,
2013-10-07 15:37:00,70.0,41.6,29.95,West,270,0.0,7.2,36,0.00,,,0.00,WUHU21623XXSP,2013-10-07 20:37:00,
2013-10-07 15:42:00,70.0,40.9,29.95,West,270,0.0,1.6,35,0.00,,,0.00,WUHU21623XXSP,2013-10-07 20:42:00,
2013-10-07 15:47:00,70.0,40.9,29.95,WSW,247,2.7,2.7,35,0.00,,,0.00,WUHU21623XXSP,2013-10-07 20:47:00,
2013-10-07 15:52:00,70.0,40.9,29.95,West,270,3.1,4.9,35,0.00,,,0.00,WUHU21623XXSP,2013-10-07 20:52:00,
2013-10-07 15:57:00,69.8,40.7,29.94,West,270,0.0,4.9,35,0.00,,,0.00,WUHU21623XXSP,2013-10-07 20:57:00,
2013-10-07 16:02:00,70.0,40.9,29.94,SSW,202,0.0,1.8,35,0.00,,,0.00,WUHU21623XXSP,2013-10-07 21:02:00,
2013-10-07 16:07:00,69.8,40.0,29.95,NNW,337,2.0,2.0,34,0.00,,,0.00,WUHU21623XXSP,2013-10-07 21:07:00,
2013-10-07 16:12:00,69.8,40.7,29.94,West,270,0.0,2.0,35,0.00,,,0.00,WUHU21623XXSP,2013-10-07 21:12:00,
2013-10-07 16:17:00,69.6,40.6,29.95,West,270,0.0,3.1,35,0.00,,,0.00,WUHU21623XXSP,2013-10-07 21:17:00,
2013-10-07 16:22:00,69.6,40.4,29.95,SSW,202,0.0,3.1,35,0.00,,,0.00,WUHU21623XXSP,2013-10-07 21:22:00,
2013-10-07 16:27:00,69.8,40.7,29.95,West,270,2.0,2.0,35,0.00,,,0.00,WUHU21623XXSP,2013-10-07 21:27:00,
2013-10-07 16:32:00,70.0,40.9,29.95,NW,315,0.0,2.7,35,0.00,,,0.00,WUHU21623XXSP,2013-10-07 21:32:00,
2013-10-07 16:37:00,70.2,41.1,29.95,SW,225,1.3,2.7,35,0.00,,,0.00,WUHU21623XXSP,2013-10-07 21:37:00,
2013-10-07 16:42:00,70.2,41.1,29.94,SSW,202,0.0,1.6,35,0.00,,,0.00,WUHU21623XXSP,2013-10-07 21:42:00,
2013-10-07 16:47:00,70.2,41.1,29.95,WNW,292,0.0,1.6,35,0.00,,,0.00,WUHU21623XXSP,2013-10-07 21:47:00,
2013-10-07 16:52:00,70.3,41.2,29.95,SW,225,4.0,4.0,35,0.00,,,0.00,WUHU21623XXSP,2013-10-07 21:52:00,
2013-10-07 16:57:00,70.0,40.9,29.95,NW,315,3.1,4.0,35,0.00,,,0.00,WUHU21623XXSP,2013-10-07 21:57:00,
2013-10-07 17:02:00,70.2,41.1,29.95,WNW,292,5.6,5.6,35,0.00,,,0.00,WUHU21623XXSP,2013-10-07 22:02:00,
2013-10-07 17:07:00,70.2,41.1,29.95,WNW,292,0.0,5.6,35,0.00,,,0.00,WUHU21623XXSP,2013-10-07 22:07:00,
2013-10-07 17:12:00,70.0,41.6,29.95,NW,315,0.0,3.8,36,0.00,,,0.00,WUHU21623XXSP,2013-10-07 22:12:00,
2013-10-07 17:17:00,70.0,40.9,29.95,SW,225,0.0,0.0,35,0.00,,,0.00,WUHU21623XXSP,2013-10-07 22:17:00,
2013-10-07 17:22:00,69.8,40.7,29.95,NW,315,2.5,3.4,35,0.00,,,0.00,WUHU21623XXSP,2013-10-07 22:22:00,
2013-10-07 17:27:00,69.8,40.7,29.95,WSW,247,0.0,3.4,35,0.00,,,0.00,WUHU21623XXSP,2013-10-07 22:27:00,
2013-10-07 17:32:00,69.6,41.3,29.95,WNW,292,0.0,0.0,36,0.00,,,0.00,WUHU21623XXSP,2013-10-07 22:32:00,
2013-10-07 17:37:00,69.6,41.3,29.96,WNW,292,0.0,0.0,36,0.00,,,0.00,WUHU21623XXSP,2013-10-07 22:37:00,
2013-10-07 17:42:00,69.4,41.1,29.96,WSW,247,0.9,0.9,36,0.00,,,0.00,WUHU21623XXSP,2013-10-07 22:42:00,
2013-10-07 17:47:00,69.3,41.0,29.96,WNW,292,0.0,0.9,36,0.00,,,0.00,WUHU21623XXSP,2013-10-07 22:47:00,
2013-10-07 17:52:00,69.1,40.8,29.96,NW,315,0.0,0.0,36,0.00,,,0.00,WUHU21623XXSP,2013-10-07 22:52:00,
2013-10-07 17:57:00,68.7,40.5,29.96,NNW,337,0.0,0.0,36,0.00,,,0.00,WUHU21623XXSP,2013-10-07 22:57:00,
2013-10-07 18:02:00,68.7,41.2,29.96,WNW,292,0.0,0.0,37,0.00,,,0.00,WUHU21623XXSP,2013-10-07 23:02:00,
2013-10-07 18:07:00,68.4,41.6,29.96,West,270,0.0,0.9,38,0.00,,,0.00,WUHU21623XXSP,2013-10-07 23:07:00,
2013-10-07 18:12:00,68.0,41.3,29.97,West,270,0.0,0.9,38,0.00,,,0.00,WUHU21623XXSP,2013-10-07 23:12:00,
2013-10-07 18:17:00,67.6,41.0,29.97,West,270,0.0,0.0,38,0.00,,,0.00,WUHU21623XXSP,2013-10-07 23:17:00,
2013-10-07 18:22:00,67.5,41.6,29.97,WNW,292,0.0,0.0,39,0.00,,,0.00,WUHU21623XXSP,2013-10-07 23:22:00,
2013-10-07 18:27:00,66.9,41.1,29.97,WNW,292,0.0,0.0,39,0.00,,,0.00,WUHU21623XXSP,2013-10-07 23:27:00,
2013-10-07 18:32:00,66.6,42.1,29.97,NW,315,0.0,0.0,41,0.00,,,0.00,WUHU21623XXSP,2013-10-07 23:32:00,
2013-10-07 18:37:00,66.2,41.8,29.97,NW,315,0.0,0.0,41,0.00,,,0.00,WUHU21623XXSP,2013-10-07 23:37:00,
2013-10-07 18:42:00,65.7,41.3,29.97,NW,315,0.0,0.0,41,0.00,,,0.00,WUHU21623XXSP,2013-10-07 23:42:00,
2013-10-07 18:47:00,65.5,41.1,29.97,WNW,292,0.0,0.0,41,0.00,,,0.00,WUHU21623XXSP,2013-10-07 23:47:00,
2013-10-07 18:52:00,65.1,41.4,29.98,WNW,292,0.0,0.0,42,0.00,,,0.00,WUHU21623XXSP,2013-10-07 23:52:00,
2013-10-07 18:57:00,64.6,41.5,29.98,WNW,292,0.0,0.0,43,0.00,,,0.00,WUHU21623XXSP,2013-10-07 23:57:00,
2013-10-07 19:02:00,64.4,41.5,29.98,WNW,292,0.0,0.0,43,0.00,,,0.00,WUHU21623XXSP,2013-10-08 00:02:00,
2013-10-07 19:07:00,64.0,41.0,29.98,North,0,0.0,0.0,43,0.00,,,0.00,WUHU21623XXSP,2013-10-08 00:07:00,
2013-10-07 19:12:00,63.9,40.8,29.99,North,0,0.0,0.0,43,0.00,,,0.00,WUHU21623XXSP,2013-10-08 00:12:00,
2013-10-07 19:17:00,63.5,40.5,29.99,North,0,0.0,0.0,43,0.00,,,0.00,WUHU21623XXSP,2013-10-08 00:17:00,
2013-10-07 19:22:00,63.3,41.5,29.99,North,0,0.0,0.0,45,0.00,,,0.00,WUHU21623XXSP,2013-10-08 00:22:00,
2013-10-07 19:27:00,63.0,41.1,29.99,North,0,0.0,0.0,45,0.00,,,0.00,WUHU21623XXSP,2013-10-08 00:27:00,
2013-10-07 19:32:00,62.8,41.0,29.99,North,0,0.0,0.0,45,0.00,,,0.00,WUHU21623XXSP,2013-10-08 00:32:00,
2013-10-07 19:37:00,62.6,40.8,29.99,North,0,0.0,0.0,45,0.00,,,0.00,WUHU21623XXSP,2013-10-08 00:37:00,
2013-10-07 19:42:00,62.2,41.1,30.00,North,0,0.0,0.0,46,0.00,,,0.00,WUHU21623XXSP,2013-10-08 00:42:00,
2013-10-07 19:47:00,62.1,40.9,30.00,North,0,0.0,0.0,46,0.00,,,0.00,WUHU21623XXSP,2013-10-08 00:47:00,
2013-10-07 19:52:00,61.7,40.6,30.00,North,0,0.0,0.0,46,0.00,,,0.00,WUHU21623XXSP,2013-10-08 00:52:00,
2013-10-07 19:57:00,61.5,41.0,30.00,North,0,0.0,0.0,47,0.00,,,0.00,WUHU21623XXSP,2013-10-08 00:57:00,
2013-10-07 20:02:00,61.2,40.7,30.00,North,0,0.0,0.0,47,0.00,,,0.00,WUHU21623XXSP,2013-10-08 01:02:00,
2013-10-07 20:07:00,61.0,40.5,30.01,NNE,22,0.0,0.0,47,0.00,,,0.00,WUHU21623XXSP,2013-10-08 01:07:00,
2013-10-07 20:12:00,60.8,41.1,30.01,NNE,22,0.0,0.0,47,0.00,,,0.00,WUHU21623XXSP,2013-10-08 01:12:00,
2013-10-07 20:17:00,60.6,40.8,30.01,NNE,22,0.0,0.0,48,0.00,,,0.00,WUHU21623XXSP,2013-10-08 01:17:00,
2013-10-07 20:22:00,60.4,40.6,30.01,NNE,22,0.0,0.0,48,0.00,,,0.00,WUHU21623XXSP,2013-10-08 01:22:00,
2013-10-07 20:27:00,60.3,40.4,30.01,North,0,0.0,0.0,48,0.00,,,0.00,WUHU21623XXSP,2013-10-08 01:27:00,
2013-10-07 20:32:00,59.9,40.1,30.01,North,0,0.0,0.0,48,0.00,,,0.00,WUHU21623XXSP,2013-10-08 01:32:00,
2013-10-07 20:37:00,59.9,40.7,30.02,North,0,0.0,0.0,49,0.00,,,0.00,WUHU21623XXSP,2013-10-08 01:37:00,
2013-10-07 20:42:00,59.7,40.5,30.02,NNE,22,0.7,0.7,49,0.00,,,0.00,WUHU21623XXSP,2013-10-08 01:42:00,
2013-10-07 20:47:00,59.5,41.1,30.02,NNE,22,1.1,1.1,50,0.00,,,0.00,WUHU21623XXSP,2013-10-08 01:47:00,
2013-10-07 20:52:00,59.4,41.3,30.02,NNE,22,0.0,1.1,51,0.00,,,0.00,WUHU21623XXSP,2013-10-08 01:52:00,
2013-10-07 20:57:00,59.2,41.1,30.03,NNE,22,0.0,1.1,51,0.00,,,0.00,WUHU21623XXSP,2013-10-08 01:57:00,
2013-10-07 21:02:00,59.0,40.9,30.03,NNE,22,0.0,0.9,51,0.00,,,0.00,WUHU21623XXSP,2013-10-08 02:02:00,
2013-10-07 21:07:00,58.6,40.6,30.03,NNE,22,0.0,0.7,51,0.00,,,0.00,WUHU21623XXSP,2013-10-08 02:07:00,
2013-10-07 21:12:00,58.5,40.4,30.03,NE,45,0.4,0.4,51,0.00,,,0.00,WUHU21623XXSP,2013-10-08 02:12:00,
2013-10-07 21:17:00,58.5,40.9,30.04,NNE,22,0.0,0.4,52,0.00,,,0.00,WUHU21623XXSP,2013-10-08 02:17:00,
2013-10-07 21:22:00,58.1,40.6,30.04,NNE,22,0.0,0.4,52,0.00,,,0.00,WUHU21623XXSP,2013-10-08 02:22:00,
2013-10-07 21:27:00,58.1,40.6,30.04,North,0,1.1,1.1,52,0.00,,,0.00,WUHU21623XXSP,2013-10-08 02:27:00,
2013-10-07 21:32:00,57.9,40.9,30.04,North,0,0.4,1.1,53,0.00,,,0.00,WUHU21623XXSP,2013-10-08 02:32:00,
2013-10-07 21:37:00,57.6,41.0,30.04,North,0,0.0,0.7,54,0.00,,,0.00,WUHU21623XXSP,2013-10-08 02:37:00,
2013-10-07 21:42:00,57.6,41.0,30.04,NNE,22,0.2,0.4,54,0.00,,,0.00,WUHU21623XXSP,2013-10-08 02:42:00,
2013-10-07 21:47:00,57.4,40.9,30.04,NNE,22,0.0,0.2,54,0.00,,,0.00,WUHU21623XXSP,2013-10-08 02:47:00,
2013-10-07 21:52:00,57.2,40.7,30.04,NNE,22,0.9,0.9,54,0.00,,,0.00,WUHU21623XXSP,2013-10-08 02:52:00,
2013-10-07 21:57:00,56.8,40.8,30.04,NNE,22,0.0,0.9,55,0.00,,,0.00,WUHU21623XXSP,2013-10-08 02:57:00,
2013-10-07 22:02:00,56.8,40.8,30.04,NNE,22,0.0,0.4,55,0.00,,,0.00,WUHU21623XXSP,2013-10-08 03:02:00,
2013-10-07 22:07:00,56.5,40.5,30.04,NNE,22,0.0,0.9,55,0.00,,,0.00,WUHU21623XXSP,2013-10-08 03:07:00,
2013-10-07 22:12:00,56.3,40.7,30.04,NNE,22,0.0,0.9,56,0.00,,,0.00,WUHU21623XXSP,2013-10-08 03:12:00,
2013-10-07 22:17:00,56.1,41.0,30.05,NNE,22,0.0,0.0,57,0.00,,,0.00,WUHU21623XXSP,2013-10-08 03:17:00,
2013-10-07 22:22:00,55.9,40.9,30.05,NNE,22,0.0,0.0,57,0.00,,,0.00,WUHU21623XXSP,2013-10-08 03:22:00,
2013-10-07 22:27:00,55.8,40.7,30.05,NNE,22,0.0,0.0,57,0.00,,,0.00,WUHU21623XXSP,2013-10-08 03:27:00,
2013-10-07 22:32:00,55.6,40.5,30.05,NNE,22,0.0,0.0,57,0.00,,,0.00,WUHU21623XXSP,2013-10-08 03:32:00,
2013-10-07 22:37:00,55.4,40.8,30.05,NNE,22,0.0,0.0,58,0.00,,,0.00,WUHU21623XXSP,2013-10-08 03:37:00,
2013-10-07 22:42:00,55.4,40.8,30.05,NE,45,0.0,0.0,58,0.00,,,0.00,WUHU21623XXSP,2013-10-08 03:42:00,
2013-10-07 22:47:00,55.2,40.6,30.05,NE,45,0.0,0.0,58,0.00,,,0.00,WUHU21623XXSP,2013-10-08 03:47:00,
2013-10-07 22:52:00,55.0,40.5,30.06,NE,45,0.0,0.0,58,0.00,,,0.00,WUHU21623XXSP,2013-10-08 03:52:00,
2013-10-07 22:57:00,55.0,40.5,30.06,NE,45,0.0,0.0,58,0.00,,,0.00,WUHU21623XXSP,2013-10-08 03:57:00,
2013-10-07 23:01:00,55.0,40.5,30.06,NE,45,0.0,0.0,58,0.00,,,0.00,WUHU21623XXSP,2013-10-08 04:01:00,
2013-10-07 23:06:00,54.9,40.3,30.06,NE,45,0.0,0.0,58,0.00,,,0.00,WUHU21623XXSP,2013-10-08 04:06:00,
2013-10-07 23:11:00,54.5,40.4,30.06,NE,45,0.0,0.0,59,0.00,,,0.00,WUHU21623XXSP,2013-10-08 04:11:00,
2013-10-07 23:16:00,54.1,40.6,30.06,NE,45,0.0,0.0,60,0.00,,,0.00,WUHU21623XXSP,2013-10-08 04:16:00,
2013-10-07 23:21:00,54.0,40.8,30.06,NE,45,0.0,0.0,61,0.00,,,0.00,WUHU21623XXSP,2013-10-08 04:21:00,
2013-10-07 23:26:00,53.8,41.1,30.06,NE,45,0.0,0.0,62,0.00,,,0.00,WUHU21623XXSP,2013-10-08 04:26:00,
2013-10-07 23:31:00,53.8,41.1,30.06,NE,45,0.0,0.0,62,0.00,,,0.00,WUHU21623XXSP,2013-10-08 04:31:00,
2013-10-07 23:36:00,53.6,40.9,30.06,NE,45,0.0,0.0,62,0.00,,,0.00,WUHU21623XXSP,2013-10-08 04:36:00,
2013-10-07 23:41:00,53.4,41.1,30.06,NE,45,0.0,0.0,63,0.00,,,0.00,WUHU21623XXSP,2013-10-08 04:41:00,
2013-10-07 23:46:00,53.2,40.9,30.06,NE,45,0.0,0.0,63,0.00,,,0.00,WUHU21623XXSP,2013-10-08 04:46:00,
2013-10-07 23:51:00,53.1,40.7,30.06,East,90,0.0,0.0,63,0.00,,,0.00,WUHU21623XXSP,2013-10-08 04:51:00,
2013-10-07 23:56:00,53.1,40.7,30.06,ESE,112,0.0,0.0,63,0.00,,,0.00,WUHU21623XXSP,2013-10-08 04:56:00,